Regional Weather Roundup
Issued by NWS

Home | Current Version | Previous Version | Graphics & Text | Print | Product List | Glossary On
Versions: 1 2 3 4 5 6 7 8 9 10 11 12 13 14 15 16 17 18 19 20 21 22 23 24 25 26 27 28 29 30 31 32 33 34 35 36 37 38 39 40 41 42 43 44 45 46 47 48 49 50
000
ASUS43 KDMX 020807
RWRIA

WEATHER ROUNDUP FOR IOWA
NATIONAL WEATHER SERVICE DES MOINES IA
300 AM CDT THU OCT 02 2014

NOTE: "FAIR" INDICATES FEW OR NO CLOUDS BELOW 12,000 FEET WITH NO
SIGNIFICANT WEATHER AND/OR OBSTRUCTIONS TO VISIBILITY.

* - THESE STATIONS ARE NOT NWS STATIONS...THUS NOT UNDER NWS
QUALITY CONTROL.  THEY ALSO DO NOT REPORT WEATHER SUCH
AS PRECIPITATION OR FOG.

IAZ001>003-012>014-020>022-031>034-043>046-020900-
   NORTHWEST IOWA

CITY           SKY/WX    TMP DP  RH WIND       PRES   REMARKS
CARROLL *      FOG       57  57 100 SE3       29.80R VSB 0
CHEROKEE *     MOCLDY    57  57 100 N5        29.78F
DENISON *      CLOUDY    63  63 100 CALM      29.77S FOG
LE MARS *      CLEAR     57  55  94 NE5       29.82R
ORANGE CITY *  PTCLDY    59  52  77 NE7       29.81F
SHELDON *      PTCLDY    57  54  88 NE8G14    29.81R
SIOUX CITY     CLOUDY    61  57  87 N6        29.79R
SPENCER        FOG       56  55  97 N3        29.81S VSB 1/4
STORM LAKE *   MOCLDY    59  59 100 CALM      29.80F FOG
$$

IAZ055>058-069>071-079>083-090>094-020900-
   SOUTHWEST IOWA

CITY           SKY/WX    TMP DP  RH WIND       PRES   REMARKS
ATLANTIC *     FOG       63  63 100 NE7       29.77S VSB 0
AUDUBON *      FOG       61  55  82 CALM      29.80S VSB 0
CLARINDA *     CLOUDY    66  66 100 E3        29.78S
COUNCIL BLFS * FOG       63  63 100 E7        29.75F VSB 0
CRESTON *      FOG       63  63 100 E5        29.79R VSB 0
HARLAN  *      FOG       63  63 100 E3        29.82R VSB 0
LAMONI         CLOUDY    65  63  93 CALM      29.78R
RED OAK *      FOG       64  64 100 CALM      29.78R VSB 1/2
SHENANDOAH *   CLOUDY    66  66 100 CALM      29.77S FOG
$$

IAZ047>049-059>061-072>074-084-020900-
   CENTRAL IOWA

CITY           SKY/WX    TMP DP  RH WIND       PRES   REMARKS
AMES           FOG       61  61 100 CALM      29.80F VSB 1/4
ANKENY *       FOG       63  63 100 E5        29.79F VSB 1/2
CHARITON *     FOG       63  63 100 NE3       29.79S VSB 0
DES MOINES     FOG       64  62  93 E6        29.78F VSB 1/4
GRINNELL*      DRZL/FOG  64  63  94 NE3       29.81F VSB 3/4
KNOXVILLE *    FOG       64  63  94 NE5       29.79S VSB 3/4
MARSHALLTOWN   CLOUDY    63  63 100 E5        29.80F FOG
PELLA *        CLOUDY    64  64 100 CALM      29.81S FOG
PERRY *        FOG       61  61 100 CALM      29.81R VSB<1/4
$$

IAZ004>006-015-016-023>025-035-036-020900-
   NORTH CENTRAL IOWA

CITY           SKY/WX    TMP DP  RH WIND       PRES   REMARKS
ALGONA *       FOG       59  59 100 SW7       29.80F VSB 3/4
CLARION *      CLOUDY    59  59 100 SE3       29.81F
ESTHERVILLE    MOCLDY    55  55 100 SW5       29.80F
FORT DODGE *   CLOUDY    57  55  94 N5        29.81F VSB 1/4
MASON CITY     FOG       54  54 100 N5        29.83S VSB 1/2
FOREST CITY *  FOG       57  57 100 E3        29.82F VSB 1/4
IOWA FALLS *   FOG       61  59  94 CALM      29.81F VSB<1/4
$$

IAZ007>011-017>019-026>030-037>042-050>054-066-020900-
   NORTHEAST IOWA

CITY           SKY/WX    TMP DP  RH WIND       PRES   REMARKS
CHARLES CITY * CLOUDY    61  59  94 CALM      29.82F FOG
CLINTON *      CLOUDY    63  59  88 E5        29.84F
DECORAH *      CLOUDY    61  59  94 CALM      29.82F FOG
MONTICELLO *   CLOUDY    63  63 100 CALM      29.81F
OELWEIN *      CLOUDY    63  61  94 SE5       29.82F FOG
WATERLOO       CLOUDY    63  61  93 CALM      29.81F FOG
$$

IAZ064-065-067-068-078-020900-
   EAST CENTRAL IOWA

CITY           SKY/WX    TMP DP  RH WIND       PRES   REMARKS
IOWA CITY      CLOUDY    65  63  93 SE3       29.82F
MT. PLEASANT *   N/A     63  61  94 CALM      29.80S FOG
MUSCATINE *    CLOUDY    64  63  94 N3        29.81F FOG
QUAD CITIES    LGT RAIN  64  61  90 E3        29.82S FOG
$$

IAZ062-063-075>077-085>089-095>099-020900-
   SOUTHEAST IOWA

CITY           SKY/WX    TMP DP  RH WIND       PRES   REMARKS
BURLINGTON     CLOUDY    66  65  96 S7        29.78F
FAIRFIELD *    CLOUDY   N/A N/A N/A E6        29.80F
FORT MADISON * CLOUDY    66  64  94 CALM      29.79F
KEOKUK *       CLOUDY    66  64  94 SE7       29.76S
OSKALOOSA *    CLOUDY    64  63  94 E5        29.80F FOG
CENTERVILLE *  CLOUDY    64  64 100 E5        29.79F FOG
OTTUMWA        FOG       62  62 100 E7        29.78F VSB 1/4
WASHINGTON *   CLOUDY    64  64 100 NE5       29.80F FOG
$$

ABBREVIATIONS USED IN REMARKS
   TC - TEMPERATURES IN CELSIUS
  WCI - WIND CHILL INDEX
   HX - HEAT INDEX
  VSB - VISIBILITY
$$




USA.gov is the U.S. government's official web portal to all federal, state and local government web resources and services.